Terug naar catalogus

PSLV DEB

ActiefSSO
NORAD 35350·DEBRIS·🇮🇳 India

Gelanceerd Oct 22, 2001 vanaf Satish Dhawan Space Centre

Loading…

Volgende Passages (komende 24 uur)

TLE

VersSource: Space-Track

Epoch: Sep 14, 2026, 09:50 UTC

1 35350U 01049QJ  26257.41020136  .00001025  00000-0  23662-3 0  9999
2 35350  98.5015 309.3968 0065848 113.5357 247.2776 14.56136958696947

Volg PSLV DEB in realtime met AllMySat

Download on the App Store